,,,PA_Meas_PMT16A,,PR_Meas_QMR101_102,,RH_Meas_QMH101,,SR_Meas_QMS101,,TA_Meas_QMH101,,GenWind,,GenWind,
date,time,status,PA,status,PR,status,RH,status,SR,status,TA,status,DirAvg,status,SpdAvg,
2010-09-22, 00:00:05,VALID,1000.66,VALID,0,VALID,87.3668,VALID,0,VALID,23.9159,VALID,50,VALID,1.27734,
2010-09-22, 00:01:05,VALID,1000.61,VALID,0,VALID,86.5504,VALID,0,VALID,23.914,VALID,43,VALID,1.37461,
2010-09-22, 00:02:05,VALID,1000.55,VALID,0,VALID,86.0163,VALID,0,VALID,23.9744,VALID,58,VALID,1.64844,
2010-09-22, 00:03:05,VALID,1000.53,VALID,0,VALID,86.703,VALID,0,VALID,23.9726,VALID,58,VALID,1.38711,
2010-09-22, 00:04:05,VALID,1000.52,VALID,0,VALID,86.7793,VALID,0,VALID,23.9939,VALID,58,VALID,1.54219,
2010-09-22, 00:05:05,VALID,1000.48,VALID,0,VALID,86.97,VALID,0,VALID,23.9744,VALID,46,VALID,1.30742,
2010-09-22, 00:06:05,VALID,1000.42,VALID,0,VALID,87.1532,VALID,0,VALID,23.9549,VALID,45,VALID,1.23945,
2010-09-22, 00:07:05,VALID,1000.36,VALID,0,VALID,87.466,VALID,0,VALID,23.9354,VALID,31,VALID,1.02969,
2010-09-22, 00:08:05,VALID,1000.35,VALID,0,VALID,87.672,VALID,0,VALID,23.8768,VALID,22,VALID,1.00742,
2010-09-22, 00:09:05,VALID,1000.34,VALID,0,VALID,87.9771,VALID,0,VALID,23.8165,VALID,19,VALID,1.00273,
2010-09-22, 00:10:05,VALID,1000.36,VALID,0,VALID,88.1297,VALID,0,VALID,23.7775,VALID,14,VALID,0.801562,
2010-09-22, 00:11:05,VALID,1000.38,VALID,0,VALID,88.1908,VALID,0,VALID,23.7384,VALID,28,VALID,1.00469,
2010-09-22, 00:12:05,VALID,1000.38,VALID,0,VALID,88.2518,VALID,0,VALID,23.6994,VALID,29,VALID,0.996875,
2010-09-22, 00:13:05,VALID,1000.41,VALID,0,VALID,88.3052,VALID,0,VALID,23.7012,VALID,24,VALID,0.783984,
2010-09-22, 00:14:05,VALID,1000.39,VALID,0,VALID,88.2823,VALID,0,VALID,23.6817,VALID,24,VALID,0.715625,
2010-09-22, 00:15:05,VALID,1000.39,VALID,0,VALID,88.0992,VALID,0,VALID,23.6622,VALID,20,VALID,0.983594,
2010-09-22, 00:16:05,VALID,1000.4,VALID,0,VALID,88.0153,VALID,0,VALID,23.6409,VALID,14,VALID,0.807031,
2010-09-22, 00:17:05,VALID,1000.39,VALID,0,VALID,87.7254,VALID,0,VALID,23.6622,VALID,9,VALID,1.11289,
2010-09-22, 00:18:05,VALID,1000.42,VALID,0,VALID,87.7483,VALID,0,VALID,23.6817,VALID,9,VALID,1.05859,
2010-09-22, 00:19:05,VALID,1000.44,VALID,0,VALID,87.9848,VALID,0,VALID,23.6622,VALID,10,VALID,1.28164,
2010-09-22, 00:20:05,VALID,1000.43,VALID,0,VALID,88.0306,VALID,0,VALID,23.6622,VALID,19,VALID,1.1293,
2010-09-22, 00:21:05,VALID,1000.41,VALID,0,VALID,88.0382,VALID,0,VALID,23.6427,VALID,41,VALID,0.725,
2010-09-22, 00:22:05,VALID,1000.39,VALID,0,VALID,87.8856,VALID,0,VALID,23.6214,VALID,59,VALID,0.482422,
2010-09-22, 00:23:05,VALID,1000.36,VALID,0,VALID,88.1984,VALID,0,VALID,23.6622,VALID,59,VALID,0.615625,
2010-09-22, 00:24:05,VALID,1000.36,VALID,0,VALID,88.2137,VALID,0,VALID,23.6409,VALID,59,VALID,0.630469,
2010-09-22, 00:25:05,VALID,1000.35,VALID,0,VALID,88.4883,VALID,0,VALID,23.6604,VALID,59,VALID,0.517969,
2010-09-22, 00:26:05,VALID,1000.35,VALID,0,VALID,88.6486,VALID,0,VALID,23.6817,VALID,59,VALID,0.473047,
2010-09-22, 00:27:05,VALID,1000.35,VALID,0,VALID,88.4273,VALID,0,VALID,23.6604,VALID,125,VALID,1.03398,
2010-09-22, 00:28:05,VALID,1000.36,VALID,0,VALID,87.8932,VALID,0,VALID,23.7012,VALID,136,VALID,1.23164,
2010-09-22, 00:29:05,VALID,1000.35,VALID,0,VALID,87.794,VALID,0,VALID,23.7384,VALID,139,VALID,1.21719,
2010-09-22, 00:30:05,VALID,1000.37,VALID,0,VALID,87.8398,VALID,0,VALID,23.7775,VALID,142,VALID,1.44922,
2010-09-22, 00:31:05,VALID,1000.39,VALID,0,VALID,88.0306,VALID,0.112286,VALID,23.8165,VALID,156,VALID,1.62266,
2010-09-22, 00:32:05,VALID,1000.41,VALID,0,VALID,88.2823,VALID,0,VALID,23.8768,VALID,160,VALID,1.91875,
2010-09-22, 00:33:05,VALID,1000.42,VALID,0,VALID,88.351,VALID,0,VALID,23.8768,VALID,165,VALID,1.71289,
2010-09-22, 00:34:05,VALID,1000.43,VALID,0,VALID,88.0534,VALID,0,VALID,23.875,VALID,166,VALID,1.82266,
2010-09-22, 00:35:05,VALID,1000.43,VALID,0,VALID,88.7096,VALID,0,VALID,23.8945,VALID,170,VALID,1.99609,
2010-09-22, 00:36:05,VALID,1000.42,VALID,0,VALID,88.7859,VALID,0,VALID,23.9354,VALID,166,VALID,1.56836,
2010-09-22, 00:37:05,VALID,1000.47,VALID,0,VALID,88.8317,VALID,0,VALID,23.914,VALID,165,VALID,1.42383,
2010-09-22, 00:38:05,VALID,1000.42,VALID,0,VALID,88.1984,VALID,0,VALID,23.9159,VALID,151,VALID,1.4625,
2010-09-22, 00:39:05,VALID,1000.43,VALID,0,VALID,88.0534,VALID,0,VALID,23.9354,VALID,148,VALID,0.988281,
2010-09-22, 00:40:05,VALID,1000.39,VALID,0,VALID,88.084,VALID,0,VALID,23.9354,VALID,130,VALID,0.719531,
2010-09-22, 00:41:05,VALID,1000.35,VALID,0,VALID,88.1374,VALID,0,VALID,23.9159,VALID,116,VALID,0.749219,
2010-09-22, 00:42:05,VALID,1000.34,VALID,0,VALID,88.206,VALID,0,VALID,23.8768,VALID,116,VALID,0.810156,
2010-09-22, 00:43:05,VALID,1000.32,VALID,0,VALID,88.084,VALID,0,VALID,23.8573,VALID,116,VALID,0.828125,
2010-09-22, 00:44:05,VALID,1000.29,VALID,0,VALID,88.3052,VALID,0,VALID,23.836,VALID,116,VALID,0.625781,
2010-09-22, 00:45:05,VALID,1000.25,VALID,0,VALID,88.3357,VALID,0,VALID,23.8378,VALID,116,VALID,0.833203,
2010-09-22, 00:46:05,VALID,1000.27,VALID,0,VALID,88.4044,VALID,0,VALID,23.8165,VALID,116,VALID,0.757813,
2010-09-22, 00:47:05,VALID,1000.25,VALID,0,VALID,88.4654,VALID,0,VALID,23.8378,VALID,112,VALID,0.695703,
2010-09-22, 00:48:05,VALID,1000.24,VALID,0,VALID,88.4654,VALID,0.112286,VALID,23.797,VALID,111,VALID,0.757422,
2010-09-22, 00:49:05,VALID,1000.25,VALID,0,VALID,88.5036,VALID,0,VALID,23.7793,VALID,113,VALID,0.716016,
2010-09-22, 00:50:05,VALID,1000.23,VALID,0,VALID,88.5417,VALID,0,VALID,23.7579,VALID,113,VALID,0.534375,
2010-09-22, 00:51:05,VALID,1000.23,VALID,0,VALID,88.5417,VALID,0,VALID,23.7597,VALID,116,VALID,0.347656,
2010-09-22, 00:52:05,VALID,1000.25,VALID,0,VALID,88.6791,VALID,0,VALID,23.7597,VALID,116,VALID,0.278906,
2010-09-22, 00:53:05,VALID,1000.19,VALID,0,VALID,88.7783,VALID,0,VALID,23.7402,VALID,116,VALID,0.131641,
2010-09-22, 00:54:05,VALID,1000.19,VALID,0,VALID,88.6791,VALID,0,VALID,23.7402,VALID,13,VALID,0.810156,
2010-09-22, 00:55:05,VALID,1000.17,VALID,0,VALID,89.3734,VALID,0,VALID,23.7402,VALID,324,VALID,0.990625,
2010-09-22, 00:56:05,VALID,1000.17,VALID,0,VALID,89.793,VALID,0,VALID,23.6604,VALID,317,VALID,0.689062,
2010-09-22, 00:57:05,VALID,1000.19,VALID,0,VALID,90.1363,VALID,0,VALID,23.6019,VALID,308,VALID,0.757031,
2010-09-22, 00:58:05,VALID,1000.2,VALID,0,VALID,90.2508,VALID,0,VALID,23.5646,VALID,289,VALID,0.939453,
2010-09-22, 00:59:05,VALID,1000.23,VALID,0,VALID,90.2431,VALID,0,VALID,23.5451,VALID,289,VALID,0.786719,
2010-09-22, 01:00:05,VALID,1000.22,VALID,0,VALID,90.266,VALID,0,VALID,23.5256,VALID,289,VALID,0.404687,
2010-09-22, 01:01:05,VALID,1000.18,VALID,0,VALID,90.35,VALID,0,VALID,23.5256,VALID,289,VALID,0.270312,
2010-09-22, 01:02:04,VALID,1000.18,VALID,0,VALID,90.472,VALID,0,VALID,23.5256,VALID,289,VALID,0.244531,
2010-09-22, 01:03:04,VALID,1000.18,VALID,0,VALID,90.3423,VALID,0,VALID,23.5061,VALID,289,VALID,0.148047,
2010-09-22, 01:04:04,VALID,1000.11,VALID,0,VALID,90.205,VALID,0,VALID,23.4848,VALID,289,VALID,0.333203,
2010-09-22, 01:05:04,VALID,1000.13,VALID,0,VALID,90.205,VALID,0,VALID,23.5256,VALID,183,VALID,0.733984,
2010-09-22, 01:06:04,VALID,1000.1,VALID,0,VALID,90.0524,VALID,0,VALID,23.4848,VALID,161,VALID,0.632813,
2010-09-22, 01:07:04,VALID,1000.11,VALID,0,VALID,90.5254,VALID,0,VALID,23.5451,VALID,144,VALID,1.3043,
2010-09-22, 01:08:04,VALID,1000.13,VALID,0,VALID,90.4415,VALID,0,VALID,23.5646,VALID,150,VALID,1.12578,
2010-09-22, 01:09:04,VALID,1000.11,VALID,0,VALID,90.1287,VALID,0,VALID,23.6427,VALID,161,VALID,1.01055,
2010-09-22, 01:10:04,VALID,1000.05,VALID,0,VALID,90.0371,VALID,0,VALID,23.7012,VALID,167,VALID,0.91875,
2010-09-22, 01:11:04,VALID,1000.02,VALID,0,VALID,89.7549,VALID,0,VALID,23.7402,VALID,173,VALID,0.772266,
2010-09-22, 01:12:04,VALID,1000.04,VALID,0,VALID,89.5794,VALID,0,VALID,23.7793,VALID,184,VALID,0.731641,
2010-09-22, 01:13:04,VALID,999.987,VALID,0,VALID,89.236,VALID,0,VALID,23.8183,VALID,183,VALID,0.934375,
2010-09-22, 01:14:04,VALID,999.993,VALID,0,VALID,88.6714,VALID,0,VALID,23.8378,VALID,167,VALID,0.948047,
2010-09-22, 01:15:04,VALID,999.998,VALID,0,VALID,87.9619,VALID,0,VALID,23.8165,VALID,166,VALID,0.685547,
2010-09-22, 01:16:04,VALID,999.992,VALID,0,VALID,88.0153,VALID,0,VALID,23.8573,VALID,166,VALID,0.542188,
2010-09-22, 01:17:04,VALID,999.982,VALID,0,VALID,88.1297,VALID,0,VALID,23.8573,VALID,166,VALID,0.264844,
2010-09-22, 01:18:04,VALID,999.968,VALID,0,VALID,88.1984,VALID,0,VALID,23.8573,VALID,166,VALID,0.399219,
2010-09-22, 01:19:04,VALID,999.987,VALID,0,VALID,88.2137,VALID,0,VALID,23.8963,VALID,166,VALID,0.255469,
2010-09-22, 01:20:04,VALID,999.981,VALID,0,VALID,88.3586,VALID,0,VALID,23.8963,VALID,166,VALID,0.21875,
2010-09-22, 01:21:04,VALID,1000.05,VALID,0,VALID,88.5951,VALID,0,VALID,23.8768,VALID,166,VALID,0.420312,
2010-09-22, 01:22:04,VALID,1000.07,VALID,0,VALID,88.8393,VALID,0,VALID,23.8573,VALID,166,VALID,0.323438,
2010-09-22, 01:23:04,VALID,1000.05,VALID,0,VALID,88.9156,VALID,0,VALID,23.797,VALID,166,VALID,0.301562,
2010-09-22, 01:24:04,VALID,1000.1,VALID,0,VALID,89.0071,VALID,0,VALID,23.7988,VALID,166,VALID,0.326562,
2010-09-22, 01:25:04,VALID,1000.1,VALID,0,VALID,89.1521,VALID,0,VALID,23.7793,VALID,166,VALID,0.443359,
2010-09-22, 01:26:04,VALID,1000.11,VALID,0,VALID,89.4954,VALID,0,VALID,23.7793,VALID,166,VALID,0.552344,
2010-09-22, 01:27:04,VALID,1000.08,VALID,0,VALID,89.7243,VALID,0,VALID,23.7189,VALID,311,VALID,0.690234,
2010-09-22, 01:28:04,VALID,1000.09,VALID,0,VALID,89.9914,VALID,0,VALID,23.6817,VALID,311,VALID,0.68125,
2010-09-22, 01:29:04,VALID,1000.08,VALID,0,VALID,90.2431,VALID,0,VALID,23.6214,VALID,314,VALID,0.697656,
2010-09-22, 01:30:04,VALID,1000.1,VALID,0,VALID,90.411,VALID,0,VALID,23.6036,VALID,329,VALID,0.630078,
2010-09-22, 01:31:04,VALID,1000.1,VALID,0,VALID,90.6017,VALID,0,VALID,23.5451,VALID,329,VALID,0.555859,
2010-09-22, 01:32:04,VALID,1000.11,VALID,0,VALID,90.8764,VALID,0,VALID,23.5061,VALID,329,VALID,0.533594,
2010-09-22, 01:33:04,VALID,1000.12,VALID,0,VALID,91.0061,VALID,0,VALID,23.5043,VALID,329,VALID,0.613672,
2010-09-22, 01:34:04,VALID,1000.12,VALID,0,VALID,91.0137,VALID,0,VALID,23.4866,VALID,329,VALID,0.604688,
2010-09-22, 01:35:04,VALID,1000.1,VALID,0,VALID,91.0061,VALID,0,VALID,23.4458,VALID,329,VALID,0.623828,
2010-09-22, 01:36:04,VALID,1000.09,VALID,0,VALID,91.0595,VALID,0,VALID,23.428,VALID,329,VALID,0.432422,
2010-09-22, 01:37:04,VALID,1000.13,VALID,0,VALID,90.9069,VALID,0,VALID,23.4067,VALID,51,VALID,0.9125,
2010-09-22, 01:38:04,VALID,1000.12,VALID,0,VALID,90.3728,VALID,0,VALID,23.4671,VALID,57,VALID,0.7625,
2010-09-22, 01:39:04,VALID,1000.13,VALID,0,VALID,89.5565,VALID,0,VALID,23.5433,VALID,57,VALID,0.608203,
2010-09-22, 01:40:04,VALID,1000.12,VALID,0,VALID,89.0377,VALID,0,VALID,23.6214,VALID,57,VALID,0.190234,
2010-09-22, 01:41:04,VALID,1000.13,VALID,0,VALID,89.114,VALID,0,VALID,23.6799,VALID,57,VALID,0.31875,
2010-09-22, 01:42:04,VALID,1000.15,VALID,0,VALID,88.8011,VALID,0,VALID,23.6994,VALID,57,VALID,0.356641,
2010-09-22, 01:43:04,VALID,1000.18,VALID,0,VALID,88.763,VALID,0,VALID,23.7384,VALID,57,VALID,0.290625,
2010-09-22, 01:44:04,VALID,1000.17,VALID,0,VALID,88.7706,VALID,0,VALID,23.7579,VALID,57,VALID,0.348828,
2010-09-22, 01:45:04,VALID,1000.19,VALID,0,VALID,88.9461,VALID,0,VALID,23.7775,VALID,57,VALID,0.303906,
2010-09-22, 01:46:04,VALID,1000.23,VALID,0,VALID,89.0224,VALID,0,VALID,23.7579,VALID,57,VALID,0.439063,
2010-09-22, 01:47:04,VALID,1000.22,VALID,0,VALID,89.2742,VALID,0,VALID,23.7775,VALID,57,VALID,0.36875,
2010-09-22, 01:48:04,VALID,1000.26,VALID,0,VALID,89.5107,VALID,0.112286,VALID,23.7579,VALID,57,VALID,0.650781,
2010-09-22, 01:49:04,VALID,1000.26,VALID,0,VALID,89.4268,VALID,0.112286,VALID,23.7579,VALID,57,VALID,0.699609,
2010-09-22, 01:50:04,VALID,1000.2,VALID,0,VALID,89.1597,VALID,0,VALID,23.7775,VALID,57,VALID,0.556641,
2010-09-22, 01:51:04,VALID,1000.17,VALID,0,VALID,89.2666,VALID,0,VALID,23.7775,VALID,57,VALID,0.601563,
2010-09-22, 01:52:04,VALID,1000.1,VALID,0,VALID,89.5107,VALID,0,VALID,23.7988,VALID,57,VALID,0.465234,
2010-09-22, 01:53:04,VALID,1000.1,VALID,0,VALID,89.7701,VALID,0,VALID,23.7988,VALID,57,VALID,0.357031,
2010-09-22, 01:54:04,VALID,1000.07,VALID,0,VALID,89.938,VALID,0,VALID,23.7793,VALID,57,VALID,0.325781,
2010-09-22, 01:55:04,VALID,1000.05,VALID,0,VALID,90.06,VALID,0,VALID,23.7597,VALID,57,VALID,0.396484,
2010-09-22, 01:56:04,VALID,1000.03,VALID,0,VALID,90.2126,VALID,0,VALID,23.7597,VALID,57,VALID,0.322656,
2010-09-22, 01:57:04,VALID,999.981,VALID,0,VALID,90.2584,VALID,0,VALID,23.742,VALID,57,VALID,0.457031,
2010-09-22, 01:58:04,VALID,999.972,VALID,0,VALID,90.3271,VALID,0,VALID,23.7402,VALID,57,VALID,0.369141,
2010-09-22, 01:59:04,VALID,999.945,VALID,0,VALID,90.2584,VALID,0,VALID,23.7012,VALID,57,VALID,0.416797,
2010-09-22, 02:00:04,VALID,999.911,VALID,0,VALID,90.3194,VALID,0,VALID,23.7207,VALID,57,VALID,0.35625,
2010-09-22, 02:01:04,VALID,999.89,VALID,0,VALID,90.5178,VALID,0,VALID,23.7207,VALID,57,VALID,0.0730469,
2010-09-22, 02:02:04,VALID,999.854,VALID,0,VALID,90.7009,VALID,0,VALID,23.7207,VALID,57,VALID,0,
2010-09-22, 02:03:04,VALID,999.845,VALID,0,VALID,90.8993,VALID,0,VALID,23.7207,VALID,57,VALID,0,
2010-09-22, 02:04:04,VALID,999.862,VALID,0,VALID,91.1206,VALID,0,VALID,23.7402,VALID,57,VALID,0.0726563,
2010-09-22, 02:05:04,VALID,999.808,VALID,0,VALID,91.2655,VALID,0,VALID,23.7207,VALID,57,VALID,0.160156,
2010-09-22, 02:06:04,VALID,999.813,VALID,0,VALID,91.296,VALID,0,VALID,23.7207,VALID,57,VALID,0,
2010-09-22, 02:07:04,VALID,999.789,VALID,0,VALID,91.3876,VALID,0,VALID,23.7402,VALID,57,VALID,0,
2010-09-22, 02:08:04,VALID,999.772,VALID,0,VALID,91.502,VALID,0,VALID,23.7384,VALID,57,VALID,0,
2010-09-22, 02:09:04,VALID,999.722,VALID,0,VALID,91.5249,VALID,0,VALID,23.7384,VALID,57,VALID,0.163281,
2010-09-22, 02:10:04,VALID,999.746,VALID,0,VALID,91.3571,VALID,0,VALID,23.7402,VALID,57,VALID,0,
2010-09-22, 02:11:04,VALID,999.742,VALID,0,VALID,91.1663,VALID,0,VALID,23.7597,VALID,57,VALID,0,
2010-09-22, 02:12:04,VALID,999.743,VALID,0,VALID,91.0748,VALID,0,VALID,23.7597,VALID,57,VALID,0,
2010-09-22, 02:13:04,VALID,999.732,VALID,0,VALID,91.029,VALID,0,VALID,23.7793,VALID,57,VALID,0,
2010-09-22, 02:14:04,VALID,999.73,VALID,0,VALID,91.0748,VALID,0,VALID,23.7793,VALID,57,VALID,0,
2010-09-22, 02:15:04,VALID,999.734,VALID,0,VALID,91.1663,VALID,0,VALID,23.7793,VALID,57,VALID,0,
2010-09-22, 02:16:04,VALID,999.74,VALID,0,VALID,91.1663,VALID,0,VALID,23.7384,VALID,57,VALID,0,
2010-09-22, 02:17:04,VALID,999.742,VALID,0,VALID,91.1663,VALID,0,VALID,23.7793,VALID,57,VALID,0,
2010-09-22, 02:18:04,VALID,999.728,VALID,0,VALID,91.2274,VALID,0,VALID,23.8006,VALID,57,VALID,0,
2010-09-22, 02:19:04,VALID,999.749,VALID,0,VALID,91.3418,VALID,0,VALID,23.7793,VALID,57,VALID,0,
2010-09-22, 02:20:04,VALID,999.731,VALID,0,VALID,91.441,VALID,0,VALID,23.7793,VALID,57,VALID,0,
2010-09-22, 02:21:04,VALID,999.734,VALID,0,VALID,91.4563,VALID,0,VALID,23.7597,VALID,57,VALID,0,
2010-09-22, 02:22:04,VALID,999.705,VALID,0,VALID,91.4715,VALID,0,VALID,23.7384,VALID,57,VALID,0,
2010-09-22, 02:23:04,VALID,999.715,VALID,0,VALID,91.5097,VALID,0,VALID,23.7597,VALID,81,VALID,0,
2010-09-22, 02:24:04,VALID,999.698,VALID,0,VALID,91.2884,VALID,0,VALID,23.7597,VALID,81,VALID,0.928906,
2010-09-22, 02:25:04,VALID,999.659,VALID,0,VALID,90.9374,VALID,0,VALID,23.7597,VALID,79,VALID,1.14531,
2010-09-22, 02:26:04,VALID,999.628,VALID,0,VALID,90.7162,VALID,0,VALID,23.7597,VALID,78,VALID,1.06172,
2010-09-22, 02:27:04,VALID,999.652,VALID,0,VALID,90.7543,VALID,0,VALID,23.7793,VALID,78,VALID,1.13359,
2010-09-22, 02:28:04,VALID,999.688,VALID,0,VALID,90.7925,VALID,0,VALID,23.7597,VALID,77,VALID,1.4125,
2010-09-22, 02:29:04,VALID,999.695,VALID,0,VALID,90.9146,VALID,0,VALID,23.7402,VALID,76,VALID,1.14453,
2010-09-22, 02:30:04,VALID,999.723,VALID,0,VALID,90.9832,VALID,0,VALID,23.7012,VALID,68,VALID,0.952344,
2010-09-22, 02:31:04,VALID,999.769,VALID,0,VALID,90.968,VALID,0,VALID,23.6817,VALID,55,VALID,1.03984,
2010-09-22, 02:32:04,VALID,999.767,VALID,0,VALID,90.9603,VALID,0,VALID,23.6622,VALID,43,VALID,1.06289,
2010-09-22, 02:33:04,VALID,999.762,VALID,0,VALID,91.0214,VALID,0,VALID,23.6427,VALID,39,VALID,1.33242,
2010-09-22, 02:34:04,VALID,999.773,VALID,0,VALID,91.1816,VALID,0,VALID,23.6232,VALID,35,VALID,1.2793,
2010-09-22, 02:35:04,VALID,999.787,VALID,0,VALID,91.3647,VALID,0,VALID,23.6232,VALID,28,VALID,1.13086,
2010-09-22, 02:36:04,VALID,999.753,VALID,0,VALID,91.5707,VALID,0,VALID,23.6232,VALID,38,VALID,1.11055,
2010-09-22, 02:37:04,VALID,999.763,VALID,0,VALID,91.6775,VALID,0,VALID,23.6427,VALID,47,VALID,0.993359,
2010-09-22, 02:38:04,VALID,999.73,VALID,0,VALID,91.853,VALID,0,VALID,23.6409,VALID,51,VALID,0.647656,
2010-09-22, 02:39:04,VALID,999.706,VALID,0,VALID,91.9064,VALID,0,VALID,23.6214,VALID,50,VALID,0.863281,
2010-09-22, 02:40:04,VALID,999.69,VALID,0,VALID,91.9293,VALID,0,VALID,23.6214,VALID,46,VALID,0.578906,
2010-09-22, 02:41:04,VALID,999.668,VALID,0,VALID,91.8683,VALID,0,VALID,23.6019,VALID,48,VALID,0.822656,
2010-09-22, 02:42:04,VALID,999.675,VALID,0,VALID,91.792,VALID,0.112286,VALID,23.5823,VALID,39,VALID,1.20742,
2010-09-22, 02:43:04,VALID,999.669,VALID,0,VALID,91.5631,VALID,0.112286,VALID,23.5823,VALID,34,VALID,1.00156,
2010-09-22, 02:44:04,VALID,999.675,VALID,0,VALID,91.4334,VALID,0,VALID,23.5433,VALID,34,VALID,0.855078,
2010-09-22, 02:45:04,VALID,999.658,VALID,0,VALID,91.3189,VALID,0.112286,VALID,23.5433,VALID,4,VALID,0.672266,
2010-09-22, 02:46:04,VALID,999.662,VALID,0,VALID,91.0824,VALID,0.112286,VALID,23.483,VALID,4,VALID,0.354688,
2010-09-22, 02:47:04,VALID,999.673,VALID,0,VALID,91.0366,VALID,0,VALID,23.4848,VALID,4,VALID,0,
2010-09-22, 02:48:04,VALID,999.688,VALID,0,VALID,91.0137,VALID,0.112286,VALID,23.444,VALID,4,VALID,0,
2010-09-22, 02:49:04,VALID,999.666,VALID,0,VALID,90.9069,VALID,0.112286,VALID,23.444,VALID,4,VALID,0,
2010-09-22, 02:50:04,VALID,999.646,VALID,0,VALID,90.8459,VALID,0.112286,VALID,23.4458,VALID,4,VALID,0,
2010-09-22, 02:51:04,VALID,999.663,VALID,0,VALID,90.7696,VALID,0.112286,VALID,23.4245,VALID,4,VALID,0,
2010-09-22, 02:52:04,VALID,999.638,VALID,0,VALID,90.7238,VALID,0,VALID,23.428,VALID,4,VALID,0,
2010-09-22, 02:53:04,VALID,999.618,VALID,0,VALID,90.8688,VALID,0,VALID,23.3872,VALID,4,VALID,0,
2010-09-22, 02:54:04,VALID,999.569,VALID,0,VALID,91.029,VALID,0,VALID,23.4067,VALID,4,VALID,0,
2010-09-22, 02:55:04,VALID,999.531,VALID,0,VALID,91.1587,VALID,0,VALID,23.4085,VALID,4,VALID,0,
2010-09-22, 02:56:04,VALID,999.49,VALID,0,VALID,91.2808,VALID,0,VALID,23.4085,VALID,4,VALID,0,
2010-09-22, 02:57:04,VALID,999.437,VALID,0,VALID,91.3418,VALID,0,VALID,23.3872,VALID,4,VALID,0,
2010-09-22, 02:58:04,VALID,999.417,VALID,0,VALID,91.3342,VALID,0,VALID,23.3872,VALID,4,VALID,0,
2010-09-22, 02:59:04,VALID,999.432,VALID,0,VALID,91.2426,VALID,0,VALID,23.3695,VALID,4,VALID,0,
2010-09-22, 03:00:04,VALID,999.461,VALID,0,VALID,91.2655,VALID,0,VALID,23.389,VALID,4,VALID,0,
2010-09-22, 03:01:04,VALID,999.475,VALID,0,VALID,91.3189,VALID,0,VALID,23.389,VALID,4,VALID,0,
2010-09-22, 03:02:04,VALID,999.453,VALID,0,VALID,91.3952,VALID,0,VALID,23.4085,VALID,4,VALID,0,
2010-09-22, 03:03:04,VALID,999.47,VALID,0,VALID,91.4181,VALID,0,VALID,23.389,VALID,4,VALID,0.546094,
2010-09-22, 03:04:04,VALID,999.47,VALID,0,VALID,91.3876,VALID,0,VALID,23.4085,VALID,4,VALID,0.479297,
2010-09-22, 03:05:04,VALID,999.469,VALID,0,VALID,91.3266,VALID,0,VALID,23.428,VALID,4,VALID,0.253516,
2010-09-22, 03:06:04,VALID,999.498,VALID,0,VALID,91.2579,VALID,0,VALID,23.4067,VALID,4,VALID,0.170703,
2010-09-22, 03:07:04,VALID,999.487,VALID,0,VALID,91.2045,VALID,0,VALID,23.4475,VALID,4,VALID,0.3,
2010-09-22, 03:08:04,VALID,999.469,VALID,0,VALID,91.1587,VALID,0,VALID,23.4067,VALID,4,VALID,0.327344,
2010-09-22, 03:09:04,VALID,999.445,VALID,0,VALID,91.1663,VALID,0,VALID,23.428,VALID,34,VALID,0.730469,
2010-09-22, 03:10:04,VALID,999.444,VALID,0,VALID,91.2655,VALID,0,VALID,23.4263,VALID,39,VALID,0.55625,
2010-09-22, 03:11:04,VALID,999.398,VALID,0,VALID,91.3266,VALID,0,VALID,23.428,VALID,39,VALID,0.595312,
2010-09-22, 03:12:04,VALID,999.37,VALID,0,VALID,91.3571,VALID,0,VALID,23.4085,VALID,39,VALID,0.346094,
2010-09-22, 03:13:04,VALID,999.34,VALID,0,VALID,91.38,VALID,0,VALID,23.3677,VALID,39,VALID,0.0101562,
2010-09-22, 03:14:04,VALID,999.353,VALID,0,VALID,91.3952,VALID,0,VALID,23.3695,VALID,39,VALID,0,
2010-09-22, 03:15:04,VALID,999.341,VALID,0,VALID,91.5097,VALID,0,VALID,23.35,VALID,39,VALID,0.328125,
2010-09-22, 03:16:04,VALID,999.355,VALID,0,VALID,91.6241,VALID,0,VALID,23.3305,VALID,39,VALID,0.45625,
2010-09-22, 03:17:04,VALID,999.378,VALID,0,VALID,91.7538,VALID,0,VALID,23.35,VALID,86,VALID,1.04258,
2010-09-22, 03:18:04,VALID,999.321,VALID,0,VALID,91.7767,VALID,0,VALID,23.3695,VALID,88,VALID,1.02813,
2010-09-22, 03:19:04,VALID,999.279,VALID,0,VALID,91.7691,VALID,0,VALID,23.3872,VALID,88,VALID,0.746875,
2010-09-22, 03:20:04,VALID,999.269,VALID,0,VALID,91.7385,VALID,0,VALID,23.4085,VALID,88,VALID,0.657031,
2010-09-22, 03:21:04,VALID,999.232,VALID,0,VALID,91.7385,VALID,0,VALID,23.428,VALID,88,VALID,0.571484,
2010-09-22, 03:22:04,VALID,999.273,VALID,0,VALID,91.6851,VALID,0,VALID,23.4475,VALID,88,VALID,0.84375,
2010-09-22, 03:23:04,VALID,999.233,VALID,0,VALID,91.5936,VALID,0,VALID,23.428,VALID,88,VALID,1.19883,
2010-09-22, 03:24:04,VALID,999.225,VALID,0,VALID,91.4486,VALID,0,VALID,23.4475,VALID,88,VALID,0.859766,
2010-09-22, 03:25:04,VALID,999.211,VALID,0,VALID,91.3342,VALID,0,VALID,23.4475,VALID,88,VALID,0.463672,
2010-09-22, 03:26:04,VALID,999.227,VALID,0,VALID,91.2426,VALID,0,VALID,23.428,VALID,88,VALID,0.351563,
2010-09-22, 03:27:04,VALID,999.28,VALID,0,VALID,91.3037,VALID,0,VALID,23.4085,VALID,88,VALID,0.672266,
2010-09-22, 03:28:04,VALID,999.319,VALID,0,VALID,91.3342,VALID,0,VALID,23.389,VALID,80,VALID,0.883594,
2010-09-22, 03:29:04,VALID,999.315,VALID,0,VALID,91.1816,VALID,0,VALID,23.3695,VALID,79,VALID,1.23789,
2010-09-22, 03:30:04,VALID,999.292,VALID,0,VALID,91.2503,VALID,0,VALID,23.3695,VALID,77,VALID,0.865234,
2010-09-22, 03:31:04,VALID,999.297,VALID,0,VALID,91.2808,VALID,0,VALID,23.3713,VALID,77,VALID,0.545313,
2010-09-22, 03:32:04,VALID,999.271,VALID,0,VALID,91.3113,VALID,0,VALID,23.35,VALID,77,VALID,0.4375,
2010-09-22, 03:33:04,VALID,999.284,VALID,0,VALID,91.38,VALID,0,VALID,23.3305,VALID,77,VALID,0.905859,
2010-09-22, 03:34:04,VALID,999.247,VALID,0,VALID,91.5402,VALID,0,VALID,23.3305,VALID,77,VALID,1.16523,
2010-09-22, 03:35:04,VALID,999.209,VALID,0,VALID,91.5173,VALID,0,VALID,23.3713,VALID,77,VALID,0.980859,
2010-09-22, 03:36:04,VALID,999.143,VALID,0,VALID,91.502,VALID,0,VALID,23.35,VALID,77,VALID,0.756641,
2010-09-22, 03:37:04,VALID,999.146,VALID,0,VALID,91.5631,VALID,0,VALID,23.3305,VALID,62,VALID,0.96875,
2010-09-22, 03:38:04,VALID,999.15,VALID,0,VALID,91.5554,VALID,0,VALID,23.3518,VALID,48,VALID,1.23203,
2010-09-22, 03:39:04,VALID,999.16,VALID,0,VALID,91.4715,VALID,0,VALID,23.311,VALID,43,VALID,1.05781,
2010-09-22, 03:40:04,VALID,999.149,VALID,0,VALID,91.38,VALID,0,VALID,23.2524,VALID,42,VALID,1.29688,
2010-09-22, 03:41:04,VALID,999.144,VALID,0,VALID,91.3876,VALID,0,VALID,23.2312,VALID,42,VALID,1.07383,
2010-09-22, 03:42:04,VALID,999.116,VALID,0,VALID,91.4715,VALID,0,VALID,23.2117,VALID,42,VALID,0.658984,
2010-09-22, 03:43:04,VALID,999.123,VALID,0,VALID,91.5326,VALID,0,VALID,23.2329,VALID,42,VALID,0.246875,
2010-09-22, 03:44:04,VALID,999.134,VALID,0,VALID,91.5631,VALID,0,VALID,23.2134,VALID,42,VALID,0,
2010-09-22, 03:45:04,VALID,999.145,VALID,0,VALID,91.5936,VALID,0,VALID,23.1939,VALID,42,VALID,0,
2010-09-22, 03:46:04,VALID,999.142,VALID,0,VALID,91.647,VALID,0,VALID,23.1744,VALID,42,VALID,0.0441406,
2010-09-22, 03:47:04,VALID,999.125,VALID,0,VALID,91.7157,VALID,0,VALID,23.1744,VALID,42,VALID,0.3625,
2010-09-22, 03:48:04,VALID,999.116,VALID,0,VALID,91.8683,VALID,0,VALID,23.1744,VALID,42,VALID,0.399219,